Location: Praha
(50.0830°N, 14.4670°E)
Time: 00:39:43
(UTC+01:00)

ISS - Pass Details

Date: 27 November 2020
Orbit: 418 x 420 km, 51.6° (Epoch: 05 December)

Event Time Altitude Azimuth Distance (km) Brightness Sun altitude
Rises 17:21:59 0° 251° (WSW) 2,358 2.3 -11.9°
Reaches altitude 10° 17:24:05 10° 251° (WSW) 1,496 0.6 -12.2°
Maximum altitude 17:27:26 86° 166° (SSE) 424 -3.8 -12.7°
Enters shadow 17:29:21 24° 75° (ENE) 919 -2.7 -13.0°
